Weather History for Istanbul, Turkey

Change the Weather History Date:

Friday, September 27, 2013

  Actual Average Record
Temperature  
Mean Temperature 72 °F -  
Max Temperature 81 °F 67 °F 89 °F (2004)
Min Temperature 64 °F 56 °F 51 °F (1997)
Cooling Degree Days 8    
Growing Degree Days 22 (Base 50)    
Moisture  
Dew Point 61 °F    
Average Humidity 69    
Maximum Humidity 88    
Minimum Humidity 42    
Precipitation  
Precipitation 0.16 in - - ()
Sea Level Pressure  
Sea Level Pressure 29.91 in    
Wind  
Wind Speed 8 mph ()    
Max Wind Speed 16 mph    
Max Gust Speed -    
Visibility 6.1 miles    
Events Rain , Thunderstorm    
Averages and records for this station are not official NWS values.
T = Trace of Precipitation, MM = Missing Value Source: Averaged Metar Reports

Daily Weather History Graph

Daily Weather History Graph

Search for Another Location

Airport:

Trip Planner

Search our weather history database for the weather conditions in past years. The results will help you decide how hot, cold, wet, or windy it might be!

Date:

Astronomy

Sep. 27, 2013 Rise Set
Actual Time 6:57 AM EEST 6:53 PM EEST
Civil Twilight 6:29 AM EEST 7:20 PM EEST
Nautical Twilight 5:57 AM EEST 7:52 PM EEST
Astronomical Twilight 5:25 AM EEST 8:25 PM EEST
Moon No Moon Rise 2:20 PM EEST (9/27)
Length of Visible Light 12h 51m
Length of Day
11h 56m
Waning Gibbous, 48% of the Moon is Illuminated
Sep 27
Waning Gibbous
Oct 5
New
Oct 12
First Quarter
Oct 19
Full
Oct 27
Last Quarter

Hourly Weather History & Observations

Time (EEST) Temp. Dew Point Humidity Pressure Visibility Wind Dir Wind Speed Gust Speed Precip Events Conditions
12:20 AM 71.6 °F 60.8 °F 69% 29.86 in - West 5.8 mph - N/A   Clear
12:50 AM 71.6 °F 60.8 °F 69% 29.86 in - WSW 8.1 mph - N/A   Clear
1:20 AM 71.6 °F 62.6 °F 73% 29.86 in - WSW 9.2 mph - N/A   Clear
1:50 AM 71.6 °F 62.6 °F 73% 29.86 in - WSW 8.1 mph - N/A   Clear
2:20 AM 71.6 °F 64.4 °F 78% 29.86 in - SW 6.9 mph - N/A   Clear
2:50 AM 69.8 °F 64.4 °F 83% 29.86 in - SW 6.9 mph - N/A   Clear
3:00 AM 71 °F 64 °F 73% 29.87 in 6 mi SW 6.9 mph - -  
3:20 AM 69.8 °F 64.4 °F 83% 29.86 in - West 6.9 mph - N/A   Clear
3:50 AM 69.8 °F 64.4 °F 83% 29.86 in - WSW 3.5 mph - N/A   Clear
4:20 AM 69.8 °F 66.2 °F 88% 29.86 in - SW 4.6 mph - N/A   Clear
4:50 AM 69.8 °F 66.2 °F 88% 29.86 in - WSW 4.6 mph - N/A   Clear
5:20 AM 68.0 °F 64.4 °F 88% 29.86 in - SW 5.8 mph - N/A   Clear
6:20 AM 69.8 °F 66.2 °F 88% 29.86 in - SW 8.1 mph - N/A   Clear
7:20 AM 69.8 °F 66.2 °F 88% 29.89 in - WSW 4.6 mph - N/A   Clear
7:50 AM 69.8 °F 64.4 °F 83% 29.89 in - WSW 6.9 mph - N/A   Clear
8:20 AM 71.6 °F 62.6 °F 73% 29.89 in 6.2 mi SW 10.4 mph - N/A   Partly Cloudy
8:50 AM 73.4 °F 60.8 °F 65% 29.89 in 6.2 mi WSW 9.2 mph - N/A   Scattered Clouds
9:00 AM 73 °F 61 °F 56% 29.89 in 6 mi WSW 9.2 mph - -   Partly Cloudy
9:20 AM 73.4 °F 60.8 °F 65% 29.89 in 6.2 mi SW 10.4 mph - N/A   Scattered Clouds
9:50 AM 73.4 °F 60.8 °F 65% 29.92 in 6.2 mi WSW 11.5 mph - N/A   Scattered Clouds
10:20 AM 75.2 °F 60.8 °F 61% 29.92 in 6.2 mi WSW 11.5 mph - N/A   Scattered Clouds
10:50 AM 73.4 °F 64.4 °F 73% 29.92 in 6.2 mi SW 12.7 mph - N/A   Scattered Clouds
11:20 AM 75.2 °F 62.6 °F 65% 29.92 in 6.2 mi SW 11.5 mph - N/A   Scattered Clouds
11:50 AM 73.4 °F 62.6 °F 69% 29.92 in 6.2 mi SW 10.4 mph - N/A   Scattered Clouds
12:20 PM 75.2 °F 62.6 °F 65% 29.92 in 6.2 mi SW 11.5 mph - N/A   Scattered Clouds
12:50 PM 75.2 °F 62.6 °F 65% 29.92 in 6.2 mi SW 11.5 mph - N/A   Scattered Clouds
1:20 PM 75.2 °F 62.6 °F 65% 29.92 in 6.2 mi SW 11.5 mph - N/A   Scattered Clouds
1:50 PM 73.4 °F 64.4 °F 73% 29.92 in 6.2 mi WSW 9.2 mph - N/A   Scattered Clouds
2:20 PM 77.0 °F 62.6 °F 61% 29.89 in 6.2 mi WSW 9.2 mph - N/A   Partly Cloudy
2:50 PM 77.0 °F 60.8 °F 57% 29.89 in 6.2 mi Variable 6.9 mph - N/A   Scattered Clouds
3:00 PM 77 °F 61 °F 47% 29.90 in 6 mi West 6.9 mph - -   Partly Cloudy
3:20 PM 77.0 °F 60.8 °F 57% 29.89 in 6.2 mi Variable 5.8 mph - N/A   Scattered Clouds
3:50 PM 78.8 °F 53.6 °F 42% 29.89 in 6.2 mi NNE 10.4 mph - N/A   Scattered Clouds
4:20 PM 75.2 °F 55.4 °F 50% 29.92 in 6.2 mi North 13.8 mph - N/A   Partly Cloudy
4:50 PM 75.2 °F 57.2 °F 53% 29.92 in 6.2 mi North 16.1 mph - N/A   Partly Cloudy
5:20 PM 73.4 °F 57.2 °F 57% 29.92 in 6.2 mi NNE 16.1 mph - N/A   Partly Cloudy
5:50 PM 71.6 °F 57.2 °F 60% 29.92 in 6.2 mi NNE 16.1 mph - N/A   Scattered Clouds
6:20 PM 69.8 °F 57.2 °F 64% 29.92 in 6.2 mi NNE 16.1 mph - N/A   Scattered Clouds
6:50 PM 69.8 °F 57.2 °F 64% 29.92 in 6.2 mi NE 16.1 mph - N/A   Scattered Clouds
7:20 PM 69.8 °F 57.2 °F 64% 29.95 in 6.2 mi NNE 16.1 mph - N/A   Scattered Clouds
7:50 PM 69.8 °F 57.2 °F 64% 29.95 in 6.2 mi NE 16.1 mph - N/A   Scattered Clouds
8:20 PM 68.0 °F 57.2 °F 68% 29.95 in 6.2 mi NNE 15.0 mph - N/A   Scattered Clouds
8:50 PM 68.0 °F 57.2 °F 68% 29.98 in 6.2 mi NE 13.8 mph - N/A   Scattered Clouds
9:00 PM 69 °F 58 °F 59% 29.97 in 6 mi NE 13.8 mph - -   Partly Cloudy
9:20 PM 68.0 °F 57.2 °F 68% 29.98 in 6.2 mi NE 11.5 mph - N/A   Scattered Clouds
9:50 PM 68.0 °F 57.2 °F 68% 29.98 in 6.2 mi NE 11.5 mph - N/A   Scattered Clouds
10:10 PM 68.0 °F 55.4 °F 64% 29.98 in 6.2 mi ENE 11.5 mph - N/A   Mostly Cloudy
10:20 PM 68.0 °F 55.4 °F 64% 29.98 in 6.2 mi ENE 11.5 mph - N/A   Mostly Cloudy
10:33 PM 68.0 °F 57.2 °F 68% 30.01 in 4.3 mi NE 9.2 mph - N/A Rain , Thunderstorm Light Thunderstorms and Rain
10:50 PM 66.2 °F 57.2 °F 73% 30.01 in - NNE 9.2 mph - N/A Rain , Thunderstorm Light Thunderstorms and Rain
11:20 PM 64.4 °F 60.8 °F 88% 30.01 in 5.0 mi NNE 6.9 mph - N/A Rain Light Rain Showers
11:50 PM 66.2 °F 60.8 °F 83% 29.98 in 6.2 mi ENE 9.2 mph - N/A Rain Light Rain Showers